DW5212 Weather Reports


time (UTC)temp
C
wind
direction
speed
KPH
gust
KPH
rain 1hr
cm
rain 24hr
cm
rain mn
cm
humidity
%
barometer
mb
20260508141006 16 146 0.0 0.0 0.00 0.00 0.00 88 1016.0
20260508140507 16 146 0.0 1.6 0.00 0.00 0.00 88 1016.1
20260508140010 16 146 1.6 3.2 0.00 0.00 0.00 87 1015.6
20260508135508 16 146 0.0 3.2 0.00 0.00 0.00 87 1015.3
20260508135008 16 146 0.0 1.6 0.00 0.00 0.00 87 1015.5
20260508134508 16 146 0.0 3.2 0.00 0.00 0.00 87 1015.2
20260508134009 16 146 0.0 3.2 0.00 0.00 0.00 88 1015.3
20260508133507 16 117 0.0 0.0 0.00 0.00 0.00 89 1015.2
20260508133010 16 138 0.0 0.0 0.00 0.00 0.00 89 1014.9
20260508132508 16 138 0.0 0.0 0.00 0.00 0.00 89 1015.2
20260508132009 16 138 0.0 0.0 0.00 0.00 0.00 90 1015.2
20260508131510 16 146 0.0 0.0 0.00 0.00 0.00 90 1015.0
20260508131010 16 207 0.0 0.0 0.00 0.00 0.00 90 1015.4
20260508130022 16 176 0.0 0.0 0.00 0.00 0.00 90 1015.5
20260508125507 16 32 0.0 0.0 0.00 0.00 0.00 90 1014.9
20260508125007 15 24 0.0 3.2 0.00 0.00 0.00 91 1014.8
20260508124507 15 161 1.6 3.2 0.00 0.00 0.00 91 1014.7
20260508124007 15 180 1.6 4.8 0.00 0.00 0.00 91 1014.6
20260508123008 15 76 0.0 0.0 0.00 0.00 0.00 91 1014.8
20260508122507 15 48 0.0 0.0 0.00 0.00 0.00 91 1013.8
20260508122009 15 48 0.0 0.0 0.00 0.00 0.00 92 1014.0
20260508121508 15 48 0.0 0.0 0.00 0.00 0.00 92 1014.0
20260508121007 15 52 0.0 0.0 0.00 0.00 0.00 92 1014.0
20260508120507 15 33 0.0 0.0 0.00 0.00 0.00 92 1014.2
20260508115505 15 33 0.0 0.0 0.00 0.00 0.00 93 1014.1
20260508115007 15 33 0.0 0.0 0.00 0.00 0.00 93 1014.0
20260508114008 15 52 0.0 0.0 0.00 0.00 0.00 94 1014.3
20260508113506 15 32 0.0 0.0 0.00 0.00 0.00 94 1014.6
20260508113007 15 32 0.0 0.0 0.00 0.00 0.00 94 1015.1
20260508112506 15 32 0.0 0.0 0.00 0.00 0.00 94 1015.2
20260508111507 15 44 0.0 3.2 0.00 0.00 0.00 94 1014.9
20260508110505 15 64 0.0 0.0 0.00 0.00 0.00 94 1014.8
20260508110009 15 64 0.0 0.0 0.00 0.00 0.00 94 1014.6
20260508105506 15 64 0.0 0.0 0.00 0.00 0.00 94 1014.8
20260508105006 15 65 0.0 0.0 0.00 0.00 0.00 94 1014.8
20260508104506 15 64 0.0 0.0 0.00 0.00 0.00 93 1014.8
20260508104006 15 65 0.0 0.0 0.00 0.00 0.00 93 1014.7
20260508103506 15 65 0.0 0.0 0.00 0.00 0.00 93 1014.6
20260508103008 15 65 0.0 0.0 0.00 0.00 0.00 93 1014.6
20260508102506 15 64 0.0 0.0 0.00 0.00 0.00 93 1014.6
20260508102006 15 64 0.0 0.0 0.00 0.00 0.00 93 1014.7
20260508100505 15 65 0.0 0.0 0.00 0.00 0.00 93 1014.8
20260508100008 15 64 0.0 0.0 0.00 0.00 0.00 93 1014.8
20260508095506 15 65 0.0 0.0 0.00 0.00 0.00 93 1014.9
20260508095008 15 64 0.0 0.0 0.00 0.00 0.00 93 1015.0
20260508094506 15 64 0.0 0.0 0.00 0.00 0.00 93 1014.8
20260508094007 15 64 0.0 0.0 0.00 0.00 0.00 93 1014.6
20260508093506 15 65 0.0 0.0 0.00 0.00 0.00 93 1014.3
20260508093007 15 65 0.0 0.0 0.00 0.00 0.00 93 1014.4
20260508092506 15 64 0.0 0.0 0.00 0.00 0.00 93 1014.6
20260508092007 15 65 0.0 0.0 0.00 0.00 0.00 93 1014.6
20260508090507 15 64 0.0 0.0 0.00 0.00 0.00 92 1014.9
20260508090010 15 65 0.0 0.0 0.00 0.00 0.00 93 1014.7
20260508085507 15 65 0.0 0.0 0.00 0.00 0.00 93 1014.5
20260508085007 15 65 0.0 0.0 0.00 0.00 0.00 93 1014.7
20260508084507 15 65 0.0 0.0 0.00 0.00 0.00 93 1014.8
20260508084008 15 64 0.0 0.0 0.00 0.00 0.00 93 1014.7
20260508083508 15 65 0.0 0.0 0.00 0.00 0.00 93 1014.8
20260508082507 15 65 0.0 0.0 0.00 0.00 0.00 93 1014.4
20260508082007 15 64 0.0 0.0 0.00 0.00 0.00 92 1014.6
20260508081506 15 64 0.0 0.0 0.00 0.00 0.00 92 1014.7
20260508081008 15 64 0.0 0.0 0.00 0.00 0.00 92 1014.5
20260508080009 15 65 0.0 0.0 0.00 0.00 0.00 92 1014.7
20260508074508 15 65 0.0 0.0 0.00 0.00 0.00 92 1014.8
20260508074007 15 64 0.0 0.0 0.00 0.00 0.00 92 1014.7
20260508073506 15 64 0.0 0.0 0.00 0.00 0.00 92 1014.6
20260508073010 15 64 0.0 0.0 0.00 0.00 0.00 92 1014.3
20260508072507 15 65 0.0 0.0 0.00 0.00 0.00 92 1014.6
20260508072007 15 65 0.0 0.0 0.00 0.00 0.00 92 1014.8
20260508071507 15 65 0.0 0.0 0.00 0.00 0.00 92 1014.6
20260508071008 15 65 0.0 0.0 0.00 0.00 0.00 92 1014.8
20260508070008 16 64 0.0 0.0 0.00 0.00 0.00 92 1014.9
20260508065507 16 65 0.0 0.0 0.00 0.00 0.00 92 1014.8
20260508065007 16 65 0.0 0.0 0.00 0.00 0.00 92 1014.9
20260508064008 16 65 0.0 0.0 0.00 0.00 0.00 91 1014.5
20260508063506 16 64 0.0 0.0 0.00 0.00 0.00 91 1014.9
20260508063009 16 64 0.0 0.0 0.00 0.00 0.00 91 1015.1
20260508062506 16 64 0.0 0.0 0.00 0.00 0.00 91 1015.4
20260508061507 16 65 0.0 0.0 0.00 0.00 0.00 91 1015.5
20260508061006 16 64 0.0 0.0 0.00 0.00 0.00 91 1015.3
20260508060011 16 64 0.0 0.0 0.00 0.00 0.00 91 1015.1
20260508055507 16 65 0.0 0.0 0.00 0.00 0.00 91 1015.3
20260508055009 16 64 0.0 0.0 0.00 0.00 0.00 91 1015.3
20260508054508 16 65 0.0 0.0 0.00 0.00 0.00 91 1015.7
20260508054009 16 64 0.0 0.0 0.00 0.00 0.00 91 1015.6
20260508053010 16 64 0.0 0.0 0.00 0.00 0.00 91 1014.9
20260508052507 16 65 0.0 0.0 0.00 0.00 0.00 91 1015.1
20260508052008 16 65 0.0 0.0 0.00 0.00 0.00 91 1015.2
20260508051508 16 65 0.0 0.0 0.00 0.00 0.00 91 1015.3
20260508051008 16 51 0.0 0.0 0.00 0.00 0.00 91 1015.3
20260508050509 16 51 0.0 0.0 0.00 0.00 0.00 91 1015.1
20260508045509 16 51 0.0 0.0 0.00 0.00 0.00 90 1015.0
20260508044508 16 47 0.0 0.0 0.00 0.00 0.00 90 1015.9
20260508044010 16 47 0.0 0.0 0.00 0.00 0.00 90 1015.7
20260508043508 16 47 0.0 0.0 0.00 0.00 0.00 90 1015.4
20260508042507 16 47 0.0 0.0 0.00 0.00 0.00 90 1016.0
20260508042010 16 47 0.0 0.0 0.00 0.00 0.00 89 1016.0
20260508041510 16 47 0.0 0.0 0.00 0.00 0.00 90 1016.1
20260508041009 16 47 0.0 0.0 0.00 0.00 0.00 90 1016.0
20260508040015 17 47 0.0 0.0 0.00 0.00 0.00 89 1016.4
20260508034510 17 65 0.0 0.0 0.00 0.00 0.00 89 1015.9
20260508034010 17 65 0.0 0.0 0.00 0.00 0.00 89 1015.8
20260508033508 17 65 0.0 0.0 0.00 0.00 0.00 89 1015.2
20260508032508 17 65 0.0 0.0 0.00 0.00 0.00 89 1015.4
20260508032009 17 65 0.0 0.0 0.00 0.00 0.00 89 1015.9
20260508031509 17 65 0.0 0.0 0.00 0.00 0.00 89 1015.9
20260508030509 17 65 0.0 0.0 0.00 0.00 0.00 89 1016.0
20260508030011 17 65 0.0 0.0 0.00 0.00 0.00 88 1016.0
20260508025507 17 65 0.0 0.0 0.00 0.00 0.00 88 1015.7
20260508025009 17 65 0.0 0.0 0.00 0.00 0.00 88 1015.3
20260508024509 17 65 0.0 0.0 0.00 0.00 0.00 88 1015.5
20260508024009 17 65 0.0 0.0 0.00 0.00 0.00 88 1014.6
20260508023010 17 74 0.0 0.0 0.00 0.00 0.00 89 1014.7
20260508022508 17 74 0.0 0.0 0.00 0.00 0.00 88 1014.7
20260508022010 17 74 0.0 0.0 0.00 0.00 0.00 88 1015.1
20260508021508 17 76 0.0 0.0 0.00 0.00 0.00 88 1014.7
20260508020507 17 76 0.0 0.0 0.00 0.00 0.00 88 1015.1
20260508015507 17 86 0.0 0.0 0.00 0.00 0.00 88 1014.9
20260508015009 17 86 0.0 0.0 0.00 0.00 0.00 87 1015.0
20260508014009 18 86 0.0 0.0 0.00 0.00 0.00 87 1015.2
20260508013508 18 86 0.0 0.0 0.00 0.00 0.00 87 1015.3
20260508013009 18 86 0.0 0.0 0.00 0.00 0.00 87 1015.4
20260508012508 18 86 0.0 0.0 0.00 0.00 0.00 86 1015.1
20260508012009 18 86 0.0 0.0 0.00 0.00 0.00 86 1014.7
20260508011508 18 86 0.0 0.0 0.00 0.00 0.00 86 1014.7
20260508011009 18 86 0.0 0.0 0.00 0.00 0.00 85 1015.0
20260508010508 18 86 0.0 0.0 0.00 0.00 0.00 85 1015.4
20260508010011 18 86 0.0 0.0 0.00 0.00 0.00 85 1015.3
20260508005507 18 86 0.0 0.0 0.00 0.00 0.00 85 1015.0
20260508005009 18 86 0.0 0.0 0.00 0.00 0.00 85 1014.8
20260508004508 18 86 0.0 0.0 0.00 0.00 0.00 84 1014.9
20260508004008 18 86 0.0 0.0 0.00 0.00 0.00 83 1014.6
20260508003507 19 86 0.0 0.0 0.00 0.00 0.00 83 1014.4
20260508003010 19 86 0.0 0.0 0.00 0.00 0.00 82 1014.8
20260508002507 19 86 0.0 0.0 0.00 0.00 0.00 82 1014.8
20260508002009 19 86 0.0 0.0 0.00 0.00 0.00 82 1014.8
20260508001509 19 86 0.0 0.0 0.00 0.00 0.00 81 1014.9
20260508001009 19 86 0.0 0.0 0.00 0.00 0.00 81 1014.8
20260508000508 20 86 0.0 0.0 0.00 0.00 0.00 80 1014.9
20260508000011 20 86 0.0 0.0 0.00 0.00 0.00 80 1014.8
20260507235508 20 86 0.0 0.0 0.00 0.00 0.00 79 1014.8
20260507235009 20 86 0.0 0.0 0.00 0.00 0.00 80 1014.9
20260507234508 20 86 0.0 1.6 0.00 0.00 0.00 79 1014.9
20260507234010 20 86 0.0 1.6 0.00 0.00 0.00 78 1014.8
20260507233507 20 86 0.0 0.0 0.00 0.00 0.00 79 1015.3
20260507233010 20 86 0.0 0.0 0.00 0.00 0.00 79 1015.8
20260507232508 20 86 0.0 0.0 0.00 0.00 0.00 80 1015.8
20260507232009 20 86 0.0 6.4 0.00 0.00 0.00 79 1015.8
20260507231508 20 86 0.0 6.4 0.00 0.00 0.00 79 1015.0
20260507231009 20 134 1.6 3.2 0.00 0.00 0.00 78 1014.6
20260507230508 20 47 0.0 3.2 0.00 0.00 0.00 78 1014.6
20260507230010 20 347 0.0 1.6 0.00 0.00 0.00 79 1015.3
20260507225008 20 347 0.0 1.6 0.00 0.00 0.00 78 1015.0
20260507224507 20 347 0.0 6.4 0.00 0.00 0.00 77 1014.9
20260507224008 20 58 0.0 1.6 0.00 0.00 0.00 77 1014.9
20260507223506 20 58 0.0 1.6 0.00 0.00 0.00 77 1015.1
20260507223008 20 63 0.0 3.2 0.00 0.00 0.00 77 1015.1
20260507222506 20 63 0.0 3.2 0.00 0.00 0.00 76 1015.2
20260507222008 20 34 0.0 3.2 0.00 0.00 0.00 76 1014.9
20260507221508 21 34 0.0 3.2 0.00 0.00 0.00 77 1015.2
20260507221007 20 36 0.0 0.0 0.00 0.00 0.00 77 1015.0
20260507220507 21 40 0.0 3.2 0.00 0.00 0.00 76 1015.1
20260507220009 20 112 0.0 3.2 0.00 0.00 0.00 76 1015.0
20260507215507 20 111 1.6 3.2 0.00 0.00 0.00 77 1015.0
20260507215007 20 124 1.6 4.8 0.00 0.00 0.00 77 1014.9
20260507214508 20 123 0.0 4.8 0.00 0.00 0.00 78 1014.9
20260507214009 20 139 0.0 0.0 0.00 0.00 0.00 77 1015.0
20260507213506 20 29 0.0 0.0 0.00 0.00 0.00 77 1015.2
20260507213009 20 32 0.0 0.0 0.00 0.00 0.00 78 1015.2
20260507212508 20 34 0.0 0.0 0.00 0.00 0.00 77 1015.2
20260507212007 20 35 0.0 0.0 0.00 0.00 0.00 77 1015.5
20260507211507 20 35 0.0 0.0 0.00 0.00 0.00 76 1015.5
20260507210010 20 35 0.0 0.0 0.00 0.00 0.00 75 1015.7
20260507205508 20 36 0.0 0.0 0.00 0.00 0.00 77 1015.7
20260507205009 20 36 0.0 0.0 0.00 0.00 0.00 76 1015.7
20260507204509 20 48 0.0 0.0 0.00 0.00 0.00 75 1015.8
20260507204010 20 48 0.0 0.0 0.00 0.00 0.00 76 1016.1
20260507203507 20 104 0.0 0.0 0.00 0.00 0.00 75 1016.0
20260507203011 20 105 0.0 0.0 0.00 0.00 0.00 75 1016.0
20260507202508 20 104 0.0 0.0 0.00 0.00 0.00 74 1016.1
20260507201510 20 123 0.0 0.0 0.00 0.00 0.00 74 1016.2
20260507201009 20 125 0.0 0.0 0.00 0.00 0.00 74 1016.1
20260507200011 20 115 1.6 3.2 0.00 0.00 0.00 73 1016.3
20260507195507 20 5 0.0 3.2 0.00 0.00 0.00 74 1016.1
20260507194507 20 120 0.0 6.4 0.00 0.00 0.00 75 1016.2
20260507194009 20 111 0.0 3.2 0.00 0.00 0.00 75 1016.3
20260507193506 20 110 0.0 3.2 0.00 0.00 0.00 74 1016.3
20260507193009 20 66 0.0 3.2 0.00 0.00 0.00 74 1016.3
20260507192507 20 67 1.6 3.2 0.00 0.00 0.00 73 1016.4
20260507191506 20 67 1.6 4.8 0.00 0.00 0.00 74 1016.3
20260507191007 20 51 1.6 4.8 0.00 0.00 0.00 74 1016.3
20260507190507 20 118 1.6 6.4 0.00 0.00 0.00 73 1016.2
20260507185508 20 74 1.6 4.8 0.00 0.00 0.00 74 1016.3
20260507185010 20 67 1.6 6.4 0.00 0.00 0.00 74 1016.1
20260507184511 20 125 1.6 6.4 0.00 0.00 0.00 74 1016.4
20260507184010 20 284 1.6 4.8 0.00 0.00 0.00 76 1016.5
20260507183509 20 325 1.6 6.4 0.00 0.00 0.00 76 1016.6
20260507183014 19 308 3.2 6.4 0.00 0.00 0.00 78 1016.6
20260507182509 18 31 1.6 6.4 0.00 0.00 0.00 79 1016.5
20260507182010 18 251 1.6 6.4 0.00 0.00 0.00 79 1016.5
20260507181510 17 323 0.0 0.0 0.00 0.00 0.00 80 1016.7
20260507181010 17 202 1.6 4.8 0.00 0.00 0.00 81 1017.0
20260507180508 17 199 1.6 6.4 0.00 0.00 0.00 81 1016.8
20260507180011 17 24 1.6 6.4 0.00 0.00 0.00 81 1016.9
20260507175506 17 19 1.6 4.8 0.00 0.00 0.00 82 1017.1
20260507175007 17 19 1.6 4.8 0.00 0.00 0.00 81 1017.0
20260507174510 17 70 1.6 4.8 0.00 0.00 0.00 82 1016.8
20260507174010 16 334 0.0 3.2 0.00 0.00 0.00 83 1017.0
20260507173508 16 148 1.6 4.8 0.00 0.00 0.00 83 1016.9
20260507173010 16 31 1.6 4.8 0.00 0.00 0.00 83 1016.8
20260507172506 16 44 0.0 6.4 0.00 0.00 0.00 83 1017.1
20260507172008 16 279 0.0 6.4 0.00 0.00 0.00 83 1017.2
20260507171508 16 5 0.0 0.0 0.00 0.00 0.00 84 1017.3
20260507171008 16 355 0.0 0.0 0.00 0.00 0.00 84 1017.6
20260507165506 15 61 0.0 0.0 0.00 0.00 0.00 84 1017.8
20260507164508 15 75 0.0 0.0 0.00 0.00 0.00 84 1017.8
20260507163507 16 24 0.0 0.0 0.00 0.00 0.00 84 1017.6
20260507163008 16 68 0.0 0.0 0.00 0.00 0.00 84 1017.6
20260507162507 16 15 0.0 3.2 0.00 0.00 0.00 85 1017.6
20260507162009 15 32 1.6 3.2 0.00 0.00 0.00 85 1017.7
20260507161509 15 121 1.6 3.2 0.00 0.00 0.00 85 1017.8
20260507161009 15 5 1.6 3.2 0.00 0.00 0.00 85 1017.9
20260507160508 15 5 1.6 4.8 0.00 0.00 0.00 85 1017.8
20260507160009 15 10 1.6 4.8 0.00 0.00 0.00 85 1017.9
20260507155508 15 355 1.6 4.8 0.00 0.00 0.00 85 1017.6
20260507155008 15 5 1.6 4.8 0.00 0.00 0.00 86 1017.6
20260507154509 15 24 1.6 3.2 0.00 0.00 0.00 86 1017.4
20260507154010 15 5 0.0 3.2 0.00 0.00 0.00 86 1017.7
20260507153009 15 34 0.0 3.2 0.00 0.00 0.00 86 1017.8
20260507152507 15 72 0.0 0.0 0.00 0.00 0.00 87 1017.7
20260507151507 14 19 1.6 6.4 0.00 0.00 0.00 86 1017.6
20260507151007 15 22 1.6 6.4 0.00 0.00 0.00 86 1017.8
20260507150507 15 14 1.6 4.8 0.00 0.00 0.00 86 1017.6
20260507150009 15 5 1.6 4.8 0.00 0.00 0.00 86 1017.8
20260507145509 15 28 0.0 4.8 0.00 0.00 0.00 87 1018.1
20260507145008 15 29 0.0 4.8 0.00 0.00 0.00 87 1017.8
20260507144007 15 28 0.0 0.0 0.00 0.00 0.00 87 1017.7
20260507143509 15 15 0.0 0.0 0.00 0.00 0.00 87 1017.3
20260507143009 14 17 1.6 4.8 0.00 0.00 0.00 87 1017.3
20260507142008 14 348 1.6 4.8 0.00 0.00 0.00 88 1017.1
20260507141508 14 24 1.6 4.8 0.00 0.00 0.00 87 1017.1